星链-5384 (STARLINK-5384 )

导读 | 豆包AI

STARLINK-5384是美国SpaceX公司星链星座的第二代低轨通信卫星,于2022年12月28日发射升空。卫星运行于近地轨道,配备相控阵通信天线与氪离子霍尔推进器,可自主完成轨道机动和碰撞规避,依托激光星间链路实现高速通信,为全球提供低延迟、高带宽的卫星互联网接入服务,属于星链全球覆盖组网的组成部分。

基本信息
目录编号:
54836
目录名称:
STARLINK-5384
国际标识:
2022-177S
轨道中心:
EARTH
卫星名称:
星链-5384
卫星全名:
星链-5384 (STARLINK-5384 )
卫星状态:
在轨 (已飞行1219 天)
发射日期:
2022-12-28 UTC
国别 :
美国 (US)
星等 :
--
轨道信息
数据来源 国际轨道数据
星历时间: 2026-04-30T12:00:01+0800
9小时前
查看轨道信息
半长轴: 6738.879km
偏心率: 0.0001664
轨道倾角: 43.000°
近地点辐角 285.566°
升交点赤经 189.542°
平近点角 270.352°
近地点: 359.62km
远地点: 361.864km
周期: 91.757分钟
每日圈数: 15.693555
详细信息
固有亮度:
5
最大亮度:
2.5
卫星平台:
Starlink v1.5
覆盖范围:
全球
运营商:
太空探索技术公司
运营商所在国:
美国
制造商(研发单位):
太空探索技术公司
制造商所在国:
美国
使用方式:
暂无
卫星简介
星链(Starlink)计划是由太空探索技术公司(SpaceX)提出的一个巨型低轨卫星互联网星座项目,计划在2019年至2024年间在太空搭建由约1.2万颗卫星组成的“星链”网络,其中1584颗将部署在地球上空550千米处的近地轨道,并从2020年开始工作。该卫星仍在工作。
2D轨道图
3D轨道图
轨道高度分析图
轨道倾角分析图
轨道综合分析图
查看轨道综合分析图